Big Bear Station Historical Data
Daily Summary for November 28, 2017 Units:  English    Metric   Both
« Previous Day
Next Day »
Daily Weekly Monthly Yearly Custom
  High: Low: Average:
Temperature: 54.5 °F 26.1 °F 38.2 °F
Dew Point: 22.0 °F 3.9 °F 16.7 °F
Humidity: 78 % 14 % 46 %
Wind Speed: 6.8 mph 0.0 mph 1.1 mph
Wind Gust: -999.0 mph - -
Wind:- - SW
Pressure: 30.19 in 30.12 in -
Precipitation: 0.00 in    
Historical Graphs
 
 
Tabular Data for November 28, 2017
Time Temperature Dew Point Pressure Wind Wind Speed Wind Gust Humidity Rainfall Rate (Hourly)
00:09 33.8 °F 17.1 °F 30.16 in South 1.7 mph -999.0 mph 50 % 0 in
00:25 33.3 °F 16.2 °F 30.16 in Calm   -999.0 mph 49 % 0 in
00:40 32.5 °F 15.4 °F 30.16 in SSE 1.7 mph -999.0 mph 49 % 0 in
00:55 32.2 °F 16.1 °F 30.17 in SE 1.7 mph -999.0 mph 51 % 0 in
01:10 31.8 °F 17.9 °F 30.17 in SSW 2.7 mph -999.0 mph 56 % 0 in
01:25 31.3 °F 17.8 °F 30.17 in Calm   -999.0 mph 57 % 0 in
01:41 31.1 °F 18.4 °F 30.17 in South 2.2 mph -999.0 mph 59 % 0 in
01:56 30.7 °F 18.1 °F 30.16 in Calm   -999.0 mph 59 % 0 in
02:11 30.4 °F 16.2 °F 30.16 in Calm   -999.0 mph 55 % 0 in
02:27 30.0 °F 16.2 °F 30.16 in Calm   -999.0 mph 56 % 0 in
02:42 29.5 °F 16.1 °F 30.16 in Calm   -999.0 mph 57 % 0 in
02:57 29.1 °F 16.5 °F 30.16 in Calm   -999.0 mph 59 % 0 in
03:12 28.6 °F 19.4 °F 30.17 in Calm   -999.0 mph 68 % 0 in
03:27 28.9 °F 20.0 °F 30.17 in Calm   -999.0 mph 69 % 0 in
03:43 28.6 °F 19.4 °F 30.16 in Calm   -999.0 mph 68 % 0 in
04:28 27.9 °F 18.4 °F 30.16 in Calm   -999.0 mph 67 % 0 in
04:59 27.5 °F 16.9 °F 30.16 in Calm   -999.0 mph 64 % 0 in
05:14 27.1 °F 17.6 °F 30.16 in Calm   -999.0 mph 67 % 0 in
05:29 27.0 °F 18.8 °F 30.16 in Calm   -999.0 mph 71 % 0 in
05:44 26.8 °F 19.3 °F 30.16 in SSE 1.7 mph -999.0 mph 73 % 0 in
05:59 26.8 °F 19.3 °F 30.16 in Calm   -999.0 mph 73 % 0 in
06:15 26.4 °F 18.9 °F 30.16 in SSE 1.7 mph -999.0 mph 73 % 0 in
06:30 26.2 °F 20.0 °F 30.17 in Calm   -999.0 mph 77 % 0 in
07:00 26.1 °F 19.6 °F 30.17 in Calm   -999.0 mph 76 % 0 in
07:31 26.1 °F 20.2 °F 30.17 in Calm   -999.0 mph 78 % 0 in
07:46 26.6 °F 20.1 °F 30.17 in Calm   -999.0 mph 76 % 0 in
08:01 27.0 °F 19.8 °F 30.18 in Calm   -999.0 mph 74 % 0 in
08:16 28.4 °F 20.2 °F 30.18 in Calm   -999.0 mph 71 % 0 in
08:32 29.7 °F 20.8 °F 30.18 in Calm   -999.0 mph 69 % 0 in
09:02 31.3 °F 22.0 °F 30.18 in Calm   -999.0 mph 68 % 0 in
09:32 37.0 °F 7.7 °F 30.18 in Calm   -999.0 mph 29 % 0 in
09:48 39.4 °F 12.7 °F 30.18 in Calm   -999.0 mph 33 % 0 in
10:03 43.5 °F 16.3 °F 30.18 in NNW 1.1 mph -999.0 mph 33 % 0 in
10:48 51.6 °F 3.9 °F 30.17 in West 1.1 mph -999.0 mph 14 % 0 in
11:19 54.5 °F 11.8 °F 30.16 in NNW 4.2 mph -999.0 mph 18 % 0 in
11:34 54.3 °F 9.0 °F 30.15 in WNW 3.7 mph -999.0 mph 16 % 0 in
11:49 54.3 °F 10.4 °F 30.15 in NNW 3.7 mph -999.0 mph 17 % 0 in
12:04 54.5 °F 13.0 °F 30.15 in ESE 3.7 mph -999.0 mph 19 % 0 in
12:20 54.1 °F 17.1 °F 30.14 in NNW 2.2 mph -999.0 mph 23 % 0 in
12:35 54.0 °F 13.8 °F 30.14 in WNW 4.2 mph -999.0 mph 20 % 0 in
13:07 52.9 °F 17.1 °F 30.14 in West 2.7 mph -999.0 mph 24 % 0 in
13:22 52.5 °F 16.7 °F 30.14 in NW 4.2 mph -999.0 mph 24 % 0 in
13:37 52.5 °F 15.7 °F 30.13 in North 3.7 mph -999.0 mph 23 % 0 in
13:52 52.3 °F 16.5 °F 30.13 in SW 1.7 mph -999.0 mph 24 % 0 in
14:23 51.3 °F 14.7 °F 30.12 in NNE 2.7 mph -999.0 mph 23 % 0 in
14:53 50.4 °F 20.9 °F 30.13 in NW 3.2 mph -999.0 mph 31 % 0 in
15:08 49.8 °F 19.6 °F 30.12 in NNW 6.8 mph -999.0 mph 30 % 0 in
15:23 49.1 °F 21.2 °F 30.13 in North 2.7 mph -999.0 mph 33 % 0 in
15:39 48.4 °F 20.6 °F 30.13 in NW 3.2 mph -999.0 mph 33 % 0 in
15:54 47.7 °F 20.0 °F 30.13 in Calm   -999.0 mph 33 % 0 in
16:09 47.1 °F 19.4 °F 30.13 in Calm   -999.0 mph 33 % 0 in
16:24 46.2 °F 17.9 °F 30.13 in Calm   -999.0 mph 32 % 0 in
16:39 45.5 °F 18.0 °F 30.13 in Calm   -999.0 mph 33 % 0 in
16:55 45.0 °F 18.3 °F 30.14 in Calm   -999.0 mph 34 % 0 in
17:10 44.2 °F 17.6 °F 30.15 in ESE 1.7 mph -999.0 mph 34 % 0 in
17:40 42.8 °F 14.9 °F 30.16 in Calm   -999.0 mph 32 % 0 in
17:55 42.6 °F 14.8 °F 30.16 in Calm   -999.0 mph 32 % 0 in
18:11 42.1 °F 14.3 °F 30.16 in SSE 1.7 mph -999.0 mph 32 % 0 in
18:26 41.7 °F 13.3 °F 30.16 in SE 1.7 mph -999.0 mph 31 % 0 in
18:57 40.6 °F 11.6 °F 30.17 in Calm   -999.0 mph 30 % 0 in
19:13 40.5 °F 11.5 °F 30.16 in Calm   -999.0 mph 30 % 0 in
19:43 39.7 °F 10.8 °F 30.16 in SSE 1.7 mph -999.0 mph 30 % 0 in
20:14 39.4 °F 12.0 °F 30.17 in Calm   -999.0 mph 32 % 0 in
20:44 38.7 °F 15.8 °F 30.18 in Calm   -999.0 mph 39 % 0 in
21:00 37.9 °F 15.7 °F 30.18 in Calm   -999.0 mph 40 % 0 in
21:15 37.9 °F 16.3 °F 30.18 in Calm   -999.0 mph 41 % 0 in
22:00 36.3 °F 19.0 °F 30.19 in SSE 1.1 mph -999.0 mph 49 % 0 in
22:16 36.0 °F 19.1 °F 30.19 in Calm   -999.0 mph 50 % 0 in
22:31 35.1 °F 17.8 °F 30.19 in Calm   -999.0 mph 49 % 0 in
22:46 34.7 °F 17.5 °F 30.18 in South 2.7 mph -999.0 mph 49 % 0 in
23:01 34.2 °F 17.9 °F 30.18 in South 1.7 mph -999.0 mph 51 % 0 in
23:32 33.4 °F 17.7 °F 30.18 in Calm   -999.0 mph 52 % 0 in
23:47 33.6 °F 19.1 °F 30.18 in Calm   -999.0 mph 55 % 0 in
Big Bear CA Weather
Compliments of Weather Underground - 1.25 mb